Hourly Data Report for October 02, 2017

All times are specified in Local Standard Time (LST). Add 1 hour to adjust for Daylight Saving Time where and when it is observed.

THOMPSON A
MANITOBA

55°48'17.000" N
97°51'45.000" W
224.00 m
5062921
71079
YTH

Download Data

Hourly Data (October 2017)
Hourly Data Report for October 2, 2017
Temp Definition
°C
Dew Point Temp Definition
°C
Rel Hum Definition
%
Wind Dir Definition
10's deg

Wind Spd Definition
km/h
Visibility Definition
km
Stn Press Definition
kPa
Hmdx Definition


Wind Chill Definition


Weather Definition


TIME
00:00 Legend Double Dagger 11.5 11.1 97 5 7 24.1 97.78     Cloudy
01:00 Legend Double Dagger 11.7 11.3 97 5 10 24.1 97.75     LegendNANA
02:00 Legend Double Dagger 11.9 11.5 97 5 11 24.1 97.69     LegendNANA
03:00 Legend Double Dagger 12.0 11.6 98 6 7 19.3 97.70     Cloudy
04:00 Legend Double Dagger 12.1 11.8 98 5 6 6.4 97.73     Fog
05:00 Legend Double Dagger 12.0 11.7 98 5 7 3.2 97.72     Drizzle,Fog
06:00 Legend Double Dagger 12.0 11.7 98 5 4 4.0 97.69     Drizzle,Fog
07:00 Legend Double Dagger 12.0 11.7 98 35 3 1.6 97.71     Fog
08:00 Legend Double Dagger 11.3 11.0 98 1 10 0.8 97.73     Fog
09:00 Legend Double Dagger 11.3 11.0 98 36 9 0.6 97.77     Fog
10:00 Legend Double Dagger 11.7 11.4 98 3 7 1.6 97.80     Fog
11:00 Legend Double Dagger 12.2 11.9 98 34 11 3.2 97.81     Fog
12:00 Legend Double Dagger 12.4 11.8 97 35 10 16.1 97.80     Cloudy
13:00 Legend Double Dagger 12.2 11.6 96 34 12 24.1 97.86     LegendNANA
14:00 Legend Double Dagger 11.5 10.8 95 35 14 24.1 97.88     LegendNANA
15:00 Legend Double Dagger 10.7 10.1 96 36 22 4.8 97.94     Drizzle,Fog
16:00 Legend Double Dagger 10.0 9.4 96 1 22 4.8 98.00     Drizzle
17:00 Legend Double Dagger 9.1 8.5 96 1 21 3.2 98.09     Drizzle
18:00 Legend Double Dagger 7.9 7.1 94 1 25 4.8 98.17     Drizzle
19:00 Legend Double Dagger 6.9 6.0 94 1 21 8.1 98.25     Drizzle
20:00 Legend Double Dagger 5.1 4.3 94 1 26 8.1 98.36     Rain
21:00 Legend Double Dagger 4.2 3.3 94 1 21 8.1 98.51     Rain
22:00 Legend Double Dagger 3.3 2.2 93 3 28 8.1 98.64     Rain
23:00 Legend Double Dagger 2.7 1.7 93 1 26 8.1 98.77     Rain

Notes on Data Quality.

Legend

  • E = Estimated
  • M = Missing
  • NA = Not Available
  • ‡ = Partner data that is not subject to review by the National Climate Archives
Date modified: